Lid_Strength_Index
12 13 11 4 3 3 3 3 4 5 6 8 8 9 9 8 8 7 7 8 7 7 6 6 5 5 5 5 5 5 5 5 4 3 3 3 4 5 5 4 4 3 1
13 13 13 6 4 3 3 4 4 6 6 7 8 8 9 9 8 7 7 7 7 6 6 5 5 5 5 5 5 5 5 5 5 4 5 5 4 4 5 5 5 4 3
13 13 14 8 4 3 3 4 5 6 6 7 9 9 9 9 9 8 8 7 6 6 5 5 5 5 4 5 5 5 5 5 5 5 4 6 6 6 5 6 5 4 4
13 13 13 10 5 4 3 3 5 6 7 8 8 8 9 9 9 8 8 7 6 6 5 5 5 5 4 5 4 5 5 5 5 5 5 4 4 7 7 6 6 5 5
13 13 14 12 6 3 3 4 5 6 7 7 7 8 9 9 9 8 8 8 7 6 5 5 5 5 4 4 4 4 5 5 5 5 5 5 5 5 6 8 7 6 6
14 14 14 12 7 4 3 4 5 6 7 7 7 7 8 9 9 9 8 8 7 7 5 5 5 5 5 4 4 4 5 5 5 4 4 4 5 6 6 8 8 8 8
14 15 14 10 6 4 4 5 5 6 7 7 7 7 8 8 8 8 8 8 8 7 6 5 5 5 4 4 4 4 5 5 5 5 5 4 4 4 4 5 6 8 9
14 15 13 9 6 5 5 6 6 7 7 7 7 7 7 7 8 8 8 8 7 7 6 5 5 5 4 4 4 4 5 6 5 6 5 5 4 3 3 4 6 7 8
13 15 12 8 6 5 5 6 6 7 7 7 7 8 8 8 8 8 8 7 7 7 6 5 5 5 4 4 4 4 5 6 6 6 5 5 4 4 3 3 4 5 8
15 15 11 8 6 5 5 6 6 7 7 7 7 8 8 8 8 8 8 8 7 6 6 6 5 5 4 4 4 4 5 5 6 6 5 5 4 4 4 4 4 4 5
15 15 11 8 6 5 6 6 7 7 7 7 7 8 8 8 8 8 8 8 7 7 6 6 5 5 5 4 4 4 5 6 6 5 5 6 5 5 5 5 5 5 5
14 14 12 9 7 7 7 6 7 7 7 7 7 8 8 8 8 8 8 7 7 7 6 6 5 5 5 5 5 5 5 6 6 6 5 6 6 6 6 5 6 6 6
12 13 12 11 9 8 8 7 7 8 8 8 8 9 9 8 8 8 8 7 7 7 6 6 5 5 5 5 5 5 5 5 6 6 5 6 6 6 6 6 6 6 6
11 12 12 12 11 9 9 9 9 9 9 9 9 9 9 8 8 8 8 7 7 7 6 6 6 5 5 4 4 5 4 5 5 5 5 6 6 6 6 7 7 7 7
11 10 10 10 11 11 10 10 10 10 10 10 9 9 8 9 9 8 8 8 7 7 6 6 6 6 5 5 4 5 5 5 5 5 5 5 7 9 8 7 7 7 8
11 11 10 11 11 11 10 10 11 11 10 10 10 10 10 9 9 9 9 8 8 8 7 7 6 6 6 8 8 6 6 5 5 6 6 6 11 9 10 9 8 7 7
11 11 10 10 10 10 10 10 10 11 11 11 11 10 9 9 9 9 9 9 8 8 8 7 7 7 7 9 9 9 6 5 5 5 6 7 8 9 7 9 9 9 8
11 11 11 10 10 9 9 10 11 11 11 12 11 11 10 10 10 9 9 9 9 8 8 8 8 7 7 10 9 10 6 6 5 6 6 7 8 8 8 8 7 8 7
10 10 11 11 10 9 9 9 10 11 11 12 12 11 11 11 11 10 10 10 10 10 9 9 8 8 8 10 10 8 6 7 7 7 6 7 8 10 10 8 8 9 9
10 10 11 11 11 10 10 10 10 11 11 11 11 11 11 11 11 10 10 11 9 10 10 10 9 11 8 11 10 7 7 8 8 8 8 12 8 11 10 8 9 11 10
10 11 11 11 11 11 10 11 11 11 10 11 12 12 11 11 11 11 12 11 11 11 11 12 11 11 10 10 10 9 7 8 10 10 12 12 11 11 10 9 9 9 10
10 11 11 11 12 11 10 11 11 11 11 12 12 13 13 11 11 11 13 13 12 12 13 12 13 13 12 11 10 10 8 8 9 11 12 12 11 11 10 10 10 10 11
10 11 11 11 13 14 11 11 12 13 13 13 12 13 13 13 13 12 13 13 13 12 13 12 12 13 13 12 11 10 9 9 10 12 11 11 11 11 10 10 10 13 12
12 13 14 14 14 15 14 12 13 13 13 13 13 13 12 13 14 13 12 12 12 12 12 12 12 12 13 12 12 12 10 12 12 12 12 12 12 11 12 13 12 12 12
14 14 14 14 14 14 14 15 14 13 13 13 13 13 12 12 13 12 12 12 11 10 12 11 11 12 12 11 12 12 12 11 12 13 14 14 14 14 14 14 13 13 13
15 15 14 14 14 14 15 16 14 13 13 13 13 13 12 12 12 13 13 12 11 11 10 10 10 12 10 11 11 11 11 11 11 13 13 13 13 12 13 13 14 14 13